Torna al catalogo

STARLINK-31692

AttivoComunicazioniVLEO
NORAD 59577·PAYLOAD·🇺🇸 United States

Lanciato Apr 23, 2024 da Cape Canaveral Space Force Station

Loading…

Prossimi Passaggi (prossime 24 ore)

TLE

AggiornatoSource: CelesTrak SupGP

Epoca: Sep 15, 2026, 02:42 UTC

1 59577C 24076P   26258.11298611  .00012936  00000+0  27366-3 0  2589
2 59577  42.9981   9.6871 0017331 343.6902 331.3863 15.44104423    17

Traccia STARLINK-31692 in tempo reale con AllMySat

Download on the App Store